• In Belarus
  • List of Countries
  • For 7 days
  • Water Temperature
  • Satellite Maps
  • Weather Map
  • Weather Widgets
  • user-avatar
    Login

    Hourly Weather Ilebo

    Today, 20 February, Wednesday

    Time Temperature Precipitation Wind Pressure Humidity
    00:00 +29°C° 0 mm 1 mps 720 mmHg 18%
    01:00 +29°C° 0 mm 1 mps 720 mmHg 19%
    02:00 +28°C° 0 mm 1 mps 720 mmHg 20%
    03:00 +27°C° 0 mm 1 mps 720 mmHg 21%
    04:00 +26°C° 0 mm 1 mps 720 mmHg 22%
    05:00 +27°C° 0 mm 1 mps 721 mmHg 22%
    06:00 +27°C° 0 mm 1 mps 721 mmHg 22%
    07:00 +28°C° 0 mm 1 mps 722 mmHg 22%
    08:00 +31°C° 0 mm 2 mps 722 mmHg 18%
    09:00 +36°C° 0 mm 2 mps 722 mmHg 14%
    10:00 +39°C° 0 mm 3 mps 723 mmHg 9%
    11:00 +41°C° 0 mm 2 mps 722 mmHg 9%
    12:00 +42°C° 0 mm 2 mps 721 mmHg 8%
    13:00 +45°C° 0 mm 2 mps 720 mmHg 8%
    14:00 +45°C° 0 mm 2 mps 720 mmHg 8%
    15:00 +43°C° 0 mm 2 mps 719 mmHg 9%
    16:00 +43°C° 0 mm 2 mps 718 mmHg 9%
    17:00 +40°C° 0 mm 2 mps 718 mmHg 11%
    18:00 +37°C° 0 mm 1 mps 719 mmHg 13%
    19:00 +34°C° 0 mm 1 mps 719 mmHg 14%
    20:00 +34°C° 0 mm 1 mps 720 mmHg 14%
    21:00 +34°C° 0 mm 1 mps 720 mmHg 14%
    22:00 +34°C° 0 mm 1 mps 721 mmHg 14%
    23:00 +33°C° 0 mm 1 mps 721 mmHg 15%

    Tomorrow, 21 February, Thursday

    Time Temperature Precipitation Wind Pressure Humidity
    00:00 +33°C° 0 mm 1 mps 721 mmHg 15%
    01:00 +32°C° 0 mm 1 mps 720 mmHg 16%
    02:00 +32°C° 0 mm 1 mps 721 mmHg 17%
    03:00 +31°C° 0 mm 1 mps 721 mmHg 17%
    04:00 +31°C° 0 mm 1 mps 721 mmHg 18%
    05:00 +31°C° 0 mm 1 mps 722 mmHg 18%
    06:00 +29°C° 0 mm 0 mps 722 mmHg 19%
    07:00 +29°C° 0 mm 0 mps 723 mmHg 20%
    08:00 +34°C° 0 mm 1 mps 723 mmHg 17%
    09:00 +37°C° 0 mm 1 mps 724 mmHg 15%
    10:00 +41°C° 0 mm 2 mps 724 mmHg 12%
    11:00 +42°C° 0 mm 2 mps 723 mmHg 11%
    12:00 +43°C° 0 mm 2 mps 722 mmHg 11%
    13:00 +46°C° 0 mm 2 mps 721 mmHg 10%
    14:00 +45°C° 0 mm 2 mps 721 mmHg 10%
    15:00 +43°C° 0 mm 1 mps 720 mmHg 10%
    16:00 +43°C° 0 mm 1 mps 719 mmHg 10%
    17:00 +40°C° 0 mm 1 mps 720 mmHg 12%
    18:00 +37°C° 0 mm 1 mps 720 mmHg 14%
    19:00 +35°C° 0 mm 1 mps 721 mmHg 15%
    20:00 +34°C° 0 mm 1 mps 721 mmHg 18%
    21:00 +33°C° 0 mm 1 mps 721 mmHg 20%
    22:00 +32°C° 0 mm 1 mps 722 mmHg 22%
    23:00 +32°C° 0 mm 1 mps 721 mmHg 29%

    Day after tomorrow, 22 February, Friday

    Time Temperature Precipitation Wind Pressure Humidity
    00:00 +31°C° 0 mm 2 mps 721 mmHg 35%
    01:00 +31°C° 0 mm 3 mps 721 mmHg 41%
    02:00 +30°C° 0 mm 3 mps 721 mmHg 44%
    03:00 +29°C° 0 mm 2 mps 721 mmHg 46%
    04:00 +29°C° 0 mm 2 mps 721 mmHg 49%
    05:00 +29°C° 0 mm 2 mps 721 mmHg 48%
    06:00 +29°C° 0 mm 2 mps 722 mmHg 47%
    07:00 +30°C° 0 mm 1 mps 723 mmHg 46%
    08:00 +32°C° 0 mm 2 mps 723 mmHg 41%
    09:00 +36°C° 0 mm 3 mps 724 mmHg 35%
    10:00 +40°C° 0 mm 4 mps 724 mmHg 29%
    11:00 +40°C° 0 mm 3 mps 723 mmHg 26%
    12:00 +42°C° 0 mm 3 mps 722 mmHg 24%
    13:00 +43°C° 0 mm 3 mps 721 mmHg 21%
    14:00 +40°C° 0 mm 3 mps 720 mmHg 28%
    15:00 +37°C° 0 mm 4 mps 720 mmHg 36%
    16:00 +35°C° 0 mm 5 mps 719 mmHg 43%
    17:00 +34°C° 0 mm 4 mps 720 mmHg 48%
    18:00 +33°C° 0 mm 4 mps 720 mmHg 53%
    19:00 +32°C° 0 mm 4 mps 721 mmHg 58%
    20:00 +30°C° 0 mm 4 mps 721 mmHg 60%
    21:00 +30°C° 0 mm 4 mps 722 mmHg 62%
    22:00 +29°C° 0 mm 4 mps 723 mmHg 64%
    23:00 +29°C° 0 mm 4 mps 722 mmHg 67%

    23 February, Saturday

    Time Temperature Precipitation Wind Pressure Humidity
    00:00 +28°C° 0 mm 3 mps 722 mmHg 70%
    01:00 +27°C° 0 mm 3 mps 721 mmHg 73%
    02:00 +27°C° 0 mm 2 mps 721 mmHg 75%
    03:00 +26°C° 0 mm 2 mps 721 mmHg 77%
    04:00 +26°C° 0 mm 2 mps 721 mmHg 79%
    05:00 +26°C° 0 mm 2 mps 722 mmHg 77%
    06:00 +27°C° 0 mm 2 mps 722 mmHg 76%
    07:00 +27°C° 0 mm 2 mps 723 mmHg 74%
    08:00 +30°C° 0 mm 2 mps 723 mmHg 62%
    09:00 +34°C° 0 mm 3 mps 724 mmHg 50%
    10:00 +37°C° 0 mm 3 mps 724 mmHg 39%
    11:00 +37°C° 0 mm 3 mps 723 mmHg 36%
    12:00 +38°C° 0 mm 2 mps 722 mmHg 34%
    13:00 +38°C° 0 mm 2 mps 720 mmHg 32%
    14:00 +38°C° 0 mm 2 mps 720 mmHg 32%
    15:00 +38°C° 0 mm 2 mps 720 mmHg 32%
    16:00 +38°C° 0 mm 2 mps 719 mmHg 33%
    17:00 +36°C° 0.2 mm 2 mps 720 mmHg 37%
    18:00 +35°C° 0.2 mm 2 mps 720 mmHg 41%
    19:00 +32°C° 0.2 mm 2 mps 721 mmHg 45%
    20:00 +31°C° 0.5 mm 2 mps 721 mmHg 51%
    21:00 +30°C° 0.5 mm 2 mps 721 mmHg 57%
    22:00 +29°C° 0.5 mm 1 mps 722 mmHg 63%
    23:00 +29°C° 0 mm 1 mps 721 mmHg 63%

    24 February, Sunday

    Time Temperature Precipitation Wind Pressure Humidity
    00:00 +29°C° 0 mm 1 mps 721 mmHg 64%
    01:00 +28°C° 0 mm 1 mps 720 mmHg 64%
    02:00 +28°C° 0 mm 1 mps 720 mmHg 65%
    03:00 +28°C° 0 mm 1 mps 720 mmHg 65%
    04:00 +28°C° 0 mm 2 mps 720 mmHg 65%
    05:00 +28°C° 0.3 mm 2 mps 721 mmHg 64%
    06:00 +28°C° 0.3 mm 2 mps 721 mmHg 64%
    07:00 +28°C° 0.3 mm 3 mps 722 mmHg 64%
    08:00 +31°C° 0 mm 3 mps 722 mmHg 54%
    09:00 +35°C° 0 mm 3 mps 722 mmHg 44%
    10:00 +38°C° 0 mm 3 mps 722 mmHg 34%
    11:00 +41°C° 0 mm 2 mps 721 mmHg 28%
    12:00 +44°C° 0 mm 1 mps 721 mmHg 23%
    13:00 +47°C° 0 mm 1 mps 720 mmHg 18%
    14:00 +43°C° 0.1 mm 1 mps 719 mmHg 24%
    15:00 +39°C° 0.1 mm 2 mps 718 mmHg 30%
    16:00 +36°C° 0.1 mm 2 mps 717 mmHg 36%
    17:00 +35°C° 0.2 mm 2 mps 718 mmHg 40%
    18:00 +34°C° 0.2 mm 2 mps 718 mmHg 44%
    19:00 +32°C° 0.2 mm 2 mps 719 mmHg 48%
    20:00 +32°C° 0.4 mm 2 mps 719 mmHg 50%
    21:00 +31°C° 0.4 mm 2 mps 720 mmHg 52%
    22:00 +31°C° 0.4 mm 2 mps 720 mmHg 54%
    23:00 +31°C° 0.1 mm 2 mps 720 mmHg 55%

    25 February, Monday

    Time Temperature Precipitation Wind Pressure Humidity
    00:00 +30°C° 0.1 mm 1 mps 720 mmHg 56%
    01:00 +30°C° 0.1 mm 1 mps 720 mmHg 57%
    02:00 +29°C° 0.2 mm 1 mps 720 mmHg 60%
    03:00 +28°C° 0.2 mm 1 mps 720 mmHg 63%
    04:00 +28°C° 0.2 mm 1 mps 720 mmHg 65%
    05:00 +28°C° 0.6 mm 1 mps 720 mmHg 65%
    06:00 +28°C° 0.6 mm 1 mps 721 mmHg 65%
    07:00 +29°C° 0.6 mm 1 mps 721 mmHg 65%
    08:00 +32°C° 0 mm 1 mps 721 mmHg 55%
    09:00 +35°C° 0 mm 2 mps 722 mmHg 44%
    10:00 +38°C° 0 mm 2 mps 722 mmHg 34%
    11:00 +39°C° 0 mm 2 mps 721 mmHg 32%
    12:00 +39°C° 0 mm 1 mps 720 mmHg 31%
    13:00 +40°C° 0 mm 1 mps 719 mmHg 30%
    14:00 +39°C° 0.1 mm 1 mps 719 mmHg 31%
    15:00 +37°C° 0.1 mm 1 mps 718 mmHg 33%
    16:00 +37°C° 0.1 mm 1 mps 718 mmHg 35%
    17:00 +35°C° 0 mm 1 mps 718 mmHg 37%
    18:00 +34°C° 0 mm 1 mps 719 mmHg 40%
    19:00 +33°C° 0 mm 1 mps 719 mmHg 43%
    20:00 +31°C° 0.3 mm 1 mps 720 mmHg 50%
    21:00 +30°C° 0.3 mm 2 mps 720 mmHg 57%
    22:00 +29°C° 0.3 mm 2 mps 720 mmHg 64%
    23:00 +29°C° 0.3 mm 1 mps 720 mmHg 66%
    Show more